Location: Sungai Bunut
(2.6333°N, 113.7333°E)
Time: 02:00:56
(UTC+00:00)

S-56A Canister/Altair - Pass Details

Date: 10 December 2023
Orbit: 640 x 2488 km, 38.9° (Epoch: 24 February)

Event Time Altitude Azimuth Distance (km) Brightness Sun altitude
Rises 19:52:20 0° 207° (SSW) 6,124 12.1 -34.3°
Reaches altitude 10° 19:58:05 10° 193° (SSW) 4,975 11.7 -33.0°
Maximum altitude 20:07:36 21° 149° (SSE) 3,682 11.4 -30.9°
Drops below altitude 10° 20:15:23 10° 104° (ESE) 4,018 12.1 -29.1°
Sets 20:19:16 0° 89° (E) 4,694 12.5 -28.2°
